Location: Barcelona
(41.3829°N, 2.1774°E)
Time: 11:53:18
(UTC+00:00)

ISS - Pass Details

Date: 05 May 2025
Orbit: 416 x 419 km, 51.6° (Epoch: 14 May)

Event Time Altitude Azimuth Distance (km) Brightness Sun altitude
Exits shadow 01:48:19 11° 330° (NNW) 1,447 -0.7 -26.0°
Maximum altitude 01:50:00 14° 2° (N) 1,263 -0.7 -25.8°
Drops below altitude 10° 01:51:54 10° 37° (NE) 1,496 0.1 -25.6°
Sets 01:54:46 0° 63° (ENE) 2,360 1.0 -25.3°
